Weather History for KLXN - January, 2012

Change the Weather History Date:

Saturday, January 28, 2012

  Actual Average Record
Temperature  
Mean Temperature 28 °F -  
Max Temperature 44 °F 36 °F 68 °F (2015)
Min Temperature 11 °F 15 °F -11 °F (1997)
Degree Days  
Heating Degree Days 38    
Moisture  
Dew Point 10 °F    
Average Humidity 55    
Maximum Humidity 89    
Minimum Humidity 16    
Precipitation  
Precipitation 0.00 in - - ()
Sea Level Pressure  
Sea Level Pressure 30.24 in    
Wind  
Wind Speed 12 mph (WNW)    
Max Wind Speed 28 mph    
Max Gust Speed 37 mph    
Visibility 10 miles    
Events      
Averages and records for this station are not official NWS values.
T = Trace of Precipitation, MM = Missing Value Source: NWS Daily Summary

Daily Weather History Graph

Daily Weather History Graph

Search for Another Location

Airport or City:

Trip Planner

Search our weather history database for the weather conditions in past years. The results will help you decide how hot, cold, wet, or windy it might be!

Date:

Astronomy

Jan. 28, 2012 Rise Set
Actual Time 7:53 AM CST 5:51 PM CST
Civil Twilight 7:24 AM CST 6:20 PM CST
Nautical Twilight 6:50 AM CST 6:53 PM CST
Astronomical Twilight 6:18 AM CST 7:25 PM CST
Moon 10:13 AM CST (1/28) 11:43 PM CST (1/28)
Length of Visible Light 10h 56m
Length of Day
9h 57m
Waxing Crescent, 28% of the Moon is Illuminated
Jan 28
Waxing Crescent
Jan 30
First Quarter
Feb 7
Full
Feb 14
Last Quarter
Feb 21
New

Hourly Weather History & Observations

Time (CST) Temp. Windchill Dew Point Humidity Pressure Visibility Wind Dir Wind Speed Gust Speed Precip Events Conditions
12:15 AM 21.6 °F 10.6 °F 18.1 °F 87% 30.29 in 10.0 mi West 10.4 mph - N/A   Clear
12:35 AM 20.3 °F 10.6 °F 16.3 °F 85% 30.29 in 10.0 mi WNW 8.1 mph - N/A   Clear
12:55 AM 20.1 °F 10.3 °F 16.9 °F 87% 30.28 in 10.0 mi WNW 8.1 mph - N/A   Clear
1:15 AM 18.3 °F 7.3 °F 15.4 °F 89% 30.27 in 10.0 mi WNW 9.2 mph - N/A   Clear
1:35 AM 18.5 °F 6.8 °F 15.6 °F 89% 30.27 in 10.0 mi WNW 10.4 mph - N/A   Clear
1:55 AM 20.8 °F 9.0 °F 16.7 °F 84% 30.26 in 10.0 mi WNW 11.5 mph - N/A   Clear
2:15 AM 18.1 °F 7.1 °F 14.2 °F 84% 30.25 in 10.0 mi WNW 9.2 mph - N/A   Clear
2:35 AM 17.2 °F 6.0 °F 13.5 °F 85% 30.25 in 10.0 mi West 9.2 mph - N/A   Clear
2:55 AM 15.6 °F 3.2 °F 12.4 °F 87% 30.25 in 10.0 mi WNW 10.4 mph - N/A   Clear
3:15 AM 14.5 °F 7.1 °F 10.9 °F 86% 30.24 in 10.0 mi West 4.6 mph - N/A   Clear
3:35 AM 13.3 °F 5.6 °F 9.7 °F 86% 30.24 in 10.0 mi West 4.6 mph - N/A   Clear
3:55 AM 12.7 °F 3.6 °F 9.0 °F 85% 30.24 in 10.0 mi WSW 5.8 mph - N/A   Clear
4:15 AM 14.9 °F 5.0 °F 10.2 °F 82% 30.24 in 10.0 mi WSW 6.9 mph - N/A   Clear
4:35 AM 15.6 °F 4.9 °F 10.2 °F 79% 30.24 in 10.0 mi WSW 8.1 mph - N/A   Clear
4:55 AM 17.6 °F 5.0 °F 11.3 °F 76% 30.24 in 10.0 mi West 11.5 mph - N/A   Clear
5:15 AM 17.8 °F 5.2 °F 11.1 °F 75% 30.24 in 10.0 mi West 11.5 mph - N/A   Clear
5:35 AM 16.7 °F 4.5 °F 10.4 °F 76% 30.24 in 10.0 mi West 10.4 mph - N/A   Clear
5:55 AM 16.3 °F 3.4 °F 9.9 °F 76% 30.23 in 10.0 mi West 11.5 mph - N/A   Clear
6:15 AM 17.6 °F 6.4 °F 10.4 °F 73% 30.23 in 10.0 mi West 9.2 mph - N/A   Clear
6:35 AM 16.2 °F 3.9 °F 9.5 °F 75% 30.24 in 10.0 mi WNW 10.4 mph - N/A   Clear
6:55 AM 11.1 °F -1.6 °F 6.3 °F 81% 30.24 in 10.0 mi NW 9.2 mph - N/A   Clear
7:15 AM 11.3 °F -0.4 °F 6.8 °F 82% 30.24 in 10.0 mi WNW 8.1 mph - N/A   Clear
7:35 AM 12.4 °F 0.9 °F 7.5 °F 81% 30.25 in 10.0 mi WNW 8.1 mph - N/A   Clear
7:55 AM 12.6 °F 1.1 °F 7.3 °F 80% 30.25 in 10.0 mi West 8.1 mph - N/A   Clear
8:15 AM 14.2 °F 1.4 °F 9.7 °F 82% 30.25 in 10.0 mi West 10.4 mph - N/A   Clear
8:35 AM 22.6 °F 11.3 °F 14.2 °F 70% 30.26 in 10.0 mi West 11.5 mph - N/A   Clear
8:55 AM 25.3 °F 13.1 °F 14.9 °F 65% 30.26 in 10.0 mi West 15.0 mph - N/A   Clear
9:15 AM 27.1 °F 14.5 °F 16.0 °F 63% 30.27 in 10.0 mi West 17.3 mph 21.9 mph N/A   Mostly Cloudy
9:35 AM 28.8 °F 17.0 °F 15.3 °F 57% 30.27 in 10.0 mi West 16.1 mph - N/A   Mostly Cloudy
9:55 AM 31.3 °F 20.7 °F 15.8 °F 53% 30.27 in 10.0 mi West 15.0 mph 19.6 mph N/A   Scattered Clouds
10:15 AM 32.4 °F 21.3 °F 14.7 °F 48% 30.27 in 10.0 mi West 17.3 mph - N/A   Scattered Clouds
10:35 AM 33.8 °F 22.2 °F 12.4 °F 41% 30.27 in 10.0 mi WNW 20.7 mph 28.8 mph N/A   Clear
10:55 AM 35.1 °F 24.1 °F 12.2 °F 39% 30.28 in 10.0 mi WNW 19.6 mph 26.5 mph N/A   Clear
11:15 AM 36.3 °F 25.2 °F 11.7 °F 36% 30.28 in 10.0 mi WNW 21.9 mph - N/A   Clear
11:35 AM 37.6 °F 28.1 °F 11.8 °F 35% 30.28 in 10.0 mi WNW 17.3 mph - N/A   Clear
11:55 AM 39.0 °F 30.6 °F 12.2 °F 33% 30.28 in 10.0 mi WNW 15.0 mph - N/A   Clear
12:15 PM 39.6 °F 30.0 °F 11.3 °F 31% 30.28 in 10.0 mi WNW 19.6 mph 26.5 mph N/A   Clear
12:35 PM 40.5 °F 31.2 °F 10.6 °F 29% 30.27 in 10.0 mi WNW 19.6 mph - N/A   Clear
12:55 PM 41.0 °F 31.6 °F 9.7 °F 28% 30.26 in 10.0 mi WNW 20.7 mph 27.6 mph N/A   Clear
1:15 PM 41.9 °F 32.6 °F 9.5 °F 27% 30.25 in 10.0 mi WNW 21.9 mph 28.8 mph N/A   Clear
1:35 PM 42.6 °F 33.8 °F 9.1 °F 25% 30.24 in 10.0 mi WNW 20.7 mph 32.2 mph N/A   Clear
1:55 PM 43.0 °F 33.5 °F 8.2 °F 24% 30.23 in 10.0 mi NW 24.2 mph 33.4 mph N/A   Clear
2:15 PM 43.7 °F 34.5 °F 4.3 °F 20% 30.22 in 10.0 mi WNW 24.2 mph 33.4 mph N/A   Clear
2:35 PM 43.7 °F 33.9 °F 2.8 °F 18% 30.21 in 10.0 mi NW 27.6 mph 34.5 mph N/A   Clear
2:55 PM 43.7 °F 35.2 °F 3.0 °F 19% 30.20 in 10.0 mi NW 20.7 mph 32.2 mph N/A   Clear
3:15 PM 44.8 °F 36.4 °F 1.9 °F 17% 30.20 in 10.0 mi NW 21.9 mph 28.8 mph N/A   Clear
3:35 PM 44.8 °F 35.3 °F 1.2 °F 16% 30.21 in 10.0 mi NW 27.6 mph 33.4 mph N/A   Clear
3:55 PM 44.2 °F 35.2 °F 1.8 °F 17% 30.20 in 10.0 mi NW 24.2 mph 36.8 mph N/A   Clear
4:15 PM 43.3 °F 35.2 °F 1.9 °F 18% 30.20 in 10.0 mi NW 18.4 mph 26.5 mph N/A   Clear
4:35 PM 43.7 °F 35.0 °F 3.2 °F 19% 30.20 in 10.0 mi NW 21.9 mph 26.5 mph N/A   Clear
4:55 PM 41.7 °F 32.9 °F 1.8 °F 19% 30.20 in 10.0 mi NW 19.6 mph 25.3 mph N/A   Clear
5:15 PM 40.5 °F 32.5 °F 2.3 °F 20% 30.20 in 10.0 mi NW 15.0 mph 19.6 mph N/A   Clear
5:35 PM 38.7 °F 32.4 °F 3.0 °F 23% 30.20 in 10.0 mi WNW 9.2 mph - N/A   Clear
5:55 PM 34.5 °F 28.6 °F 3.0 °F 27% 30.20 in 10.0 mi WNW 6.9 mph - N/A   Clear
6:15 PM 31.1 °F 25.4 °F 2.8 °F 30% 30.20 in 10.0 mi West 5.8 mph - N/A   Clear
6:35 PM 30.2 °F 25.4 °F 1.9 °F 30% 30.19 in 10.0 mi West 4.6 mph - N/A   Clear
6:55 PM 27.1 °F 20.7 °F 1.6 °F 33% 30.19 in 10.0 mi West 5.8 mph - N/A   Clear
7:15 PM 27.1 °F 20.7 °F 3.2 °F 36% 30.19 in 10.0 mi WSW 5.8 mph - N/A   Clear
7:35 PM 27.0 °F 18.7 °F 4.1 °F 38% 30.19 in 10.0 mi West 8.1 mph - N/A   Clear
7:55 PM 28.9 °F 19.8 °F 4.8 °F 36% 30.20 in 10.0 mi West 10.4 mph - N/A   Clear
8:15 PM 30.0 °F 21.7 °F 4.8 °F 34% 30.20 in 10.0 mi WNW 9.2 mph - N/A   Clear
8:35 PM 32.5 °F 25.5 °F 4.8 °F 31% 30.19 in 10.0 mi NW 8.1 mph - N/A   Scattered Clouds
8:55 PM 32.4 °F 26.0 °F 5.9 °F 33% 30.20 in 10.0 mi West 6.9 mph - N/A   Scattered Clouds
9:15 PM 34.3 °F 26.5 °F 5.2 °F 29% 30.19 in 10.0 mi WNW 10.4 mph - N/A   Clear
9:35 PM 32.7 °F 26.4 °F 5.5 °F 32% 30.19 in 10.0 mi WNW 6.9 mph - N/A   Clear
9:55 PM 31.6 °F 24.4 °F 5.9 °F 34% 30.19 in 10.0 mi West 8.1 mph - N/A   Clear
10:15 PM 30.7 °F 24.1 °F 6.8 °F 36% 30.19 in 10.0 mi WSW 6.9 mph - N/A   Clear
10:35 PM 30.9 °F 25.2 °F 7.7 °F 38% 30.19 in 10.0 mi WSW 5.8 mph - N/A   Scattered Clouds
10:55 PM 32.4 °F 25.3 °F 7.3 °F 35% 30.19 in 10.0 mi West 8.1 mph - N/A   Scattered Clouds
11:15 PM 31.1 °F 23.7 °F 7.2 °F 37% 30.19 in 10.0 mi West 8.1 mph - N/A   Clear
11:35 PM 28.4 °F 22.2 °F 7.3 °F 41% 30.19 in 10.0 mi West 5.8 mph - N/A   Clear
11:55 PM 24.8 °F 19.1 °F 6.1 °F 45% 30.19 in 10.0 mi WNW 4.6 mph - N/A   Scattered Clouds